Flag for Germany Weather past 2 weeks in Ehingen (Donau), Baden-Württemberg, Germany

Now
34 °F

Light rain. Low clouds.


Feels Like: 29 °F
Forecast: 30 / 36 °F
Wind: 6 mph from Southwest

Location: Laupheim Airport

Current Time: Jan 30, 2015 at 12:07:37 AM

Latest Report: Jan 29, 2015 at 11:20 PM


Visibility: 4 mi

Pressure: 28.85 "Hg

Humidity: 93%

Dew point: 32 °F

Location of Ehingen (Donau)Location

Historic Weather in Ehingen (Donau) — Graph

°F

Ehingen (Donau) temperature yesterday

Maximum temperature yesterday: 36 °F (at 1:20 AM)
Minimum temperature yesterday: 30 °F (at 8:20 AM)
Average temperature yesterday: 34 °F

Past Weeks' High & Low Weather Summary

 TemperatureHumidityPressure
High45 °F (Jan 15, 2:20 PM)100% (Jan 15, 1:20 AM)30.36 "Hg (Jan 15, 1:20 AM)
Low28 °F (Jan 18, 9:20 AM)66% (Jan 15, 2:20 PM)28.88 "Hg (Jan 29, 10:20 PM)
Average32 °F92%29.93 "Hg
* Reported Jan 14 10:20 PM — Jan 29 10:20 PM, Ehingen (Donau), Weather by CustomWeather, © 2014

Note: Actual official high and low records may vary slightly from our data, if they occured in-between our weather recording intervals... More about our weather records

Advertising

Ehingen (Donau) weather history for previous 24 hours

 ConditionsComfort  
Time TempWeatherWind HumidityBarometerVisibility
10:20 PM
Jan 29
34 °FLight rain. Low clouds.8 mph93%28.88 "Hg4 mi
9:20 PM34 °FLight rain. Low clouds.8 mph93%28.94 "Hg4 mi
8:20 PM34 °FLight rain. Partly cloudy.9 mph93%29.00 "Hg6 mi
7:45 PM34 °FLight rain. Partly cloudy.12 mph93%29.03 "HgN/A
7:20 PM34 °FLight rain. Partly cloudy.12 mph93%29.03 "HgN/A
6:20 PM34 °FLight rain. Passing clouds.12 mph93%29.09 "HgN/A
5:20 PM34 °FPartly cloudy.10 mph93%29.15 "HgN/A
4:20 PM36 °FBroken clouds.10 mph87%29.18 "HgN/A
3:20 PM36 °FBroken clouds.13 mph87%29.24 "HgN/A
2:20 PM36 °FBroken clouds.14 mph87%29.30 "HgN/A
1:20 PM34 °FBroken clouds.14 mph87%29.33 "HgN/A
12:20 PM34 °FPartly sunny.16 mph81%29.39 "HgN/A
11:20 AM34 °FBroken clouds.15 mph81%29.45 "HgN/A
10:20 AM32 °FBroken clouds.18 mph87%29.47 "HgN/A
9:20 AM32 °FScattered clouds.13 mph87%29.50 "HgN/A
8:20 AM30 °FScattered clouds.12 mph93%29.53 "HgN/A
7:20 AM32 °FPartly cloudy.12 mph87%29.53 "HgN/A
6:20 AM34 °FPassing clouds.12 mph81%29.53 "HgN/A
5:20 AM34 °FPassing clouds.12 mph81%29.53 "HgN/A
4:20 AM34 °FPassing clouds.13 mph81%29.53 "HgN/A
3:20 AM34 °FLight rain. Passing clouds.14 mph93%29.53 "HgN/A
2:48 AM34 °FLight rain. Partly cloudy.10 mph93%29.53 "HgN/A
2:20 AM34 °FRain. Fog.12 mph93%29.56 "Hg1 mi
1:20 AM36 °FLight rain. Passing clouds.16 mph93%29.53 "HgN/A
12:20 AM34 °FRain. Partly cloudy.16 mph93%29.53 "HgN/A
Weather by CustomWeather, © 2014

See weather overviewHow to use our weather pages